RH
24 16 12 12 11 8 9 11 16 16 12 8 8 10 11 11 11 11 11 11 8 5 4 4 14 33 30 36 24 20 22 20 22 23 26 29 24 20 20 21 14 9 7 5 5 5 5 5 5
30 30 26 14 12 9 12 20 21 21 16 13 11 12 13 13 13 13 12 12 12 8 4 3 6 24 34 36 35 27 24 24 24 26 25 29 28 23 21 21 18 8 6 6 5 5 6 6 6
28 27 25 26 20 10 16 22 29 25 21 17 15 14 13 14 14 14 13 14 13 13 8 6 9 11 25 38 46 32 30 28 26 29 28 25 30 26 23 22 22 15 6 5 5 5 6 6 6
36 44 34 24 23 21 18 26 25 19 22 21 18 16 15 14 15 16 17 16 17 15 16 10 8 8 30 31 51 48 33 34 30 30 33 30 27 31 26 23 24 20 8 5 5 6 6 7 7
3 7 31 40 34 26 21 24 29 25 25 30 20 16 14 14 14 15 18 19 19 16 15 17 14 6 6 23 35 43 45 36 37 34 36 35 32 29 30 26 24 24 16 6 5 6 6 8 8
8 7 4 9 33 43 36 30 26 24 29 30 24 20 17 17 18 16 21 22 43 26 15 16 16 16 22 15 30 43 43 45 38 41 41 40 35 30 29 30 27 24 22 12 5 6 7 8 9
8 10 10 6 4 8 42 48 34 25 28 37 27 18 19 22 35 53 36 35 39 40 32 18 22 16 11 16 14 49 55 54 41 41 45 47 44 34 26 34 30 27 24 19 7 6 7 8 10
10 9 10 11 10 6 9 34 48 36 30 38 29 26 20 17 28 57 56 67 58 59 64 68 60 39 38 27 22 24 61 72 51 42 45 50 51 43 29 35 36 31 27 22 13 8 9 9 10
13 10 11 11 10 9 8 6 27 52 52 45 35 27 25 21 21 36 31 45 46 67 34 61 70 64 46 44 43 28 40 61 69 51 47 50 49 49 44 41 38 34 31 25 18 11 10 10 10
15 14 15 13 12 10 9 7 7 20 56 60 46 30 26 24 26 27 36 28 37 35 21 43 74 73 72 70 75 56 41 68 68 66 61 59 50 51 54 49 42 39 34 30 21 14 12 12 12
17 18 17 14 14 12 11 10 6 9 32 68 63 47 35 32 29 30 37 30 20 24 35 45 54 90 82 79 76 72 51 59 81 82 74 69 57 52 56 56 50 44 38 37 29 18 14 14 14
19 19 18 18 15 13 12 11 11 9 17 60 72 65 50 40 35 35 27 41 32 23 34 28 31 60 49 11 25 45 42 48 67 92 86 70 64 58 54 59 57 48 42 39 36 27 20 14 14
21 21 20 17 14 11 10 12 17 16 16 52 66 66 59 52 42 38 30 19 22 21 20 19 22 26 70 63 43 68 53 32 57 69 92 89 70 66 68 64 60 55 47 41 38 30 24 19 16
24 21 17 14 13 12 12 16 22 18 26 25 60 64 52 50 44 38 30 22 16 15 18 15 20 21 57 69 58 59 44 43 88 76 97 96 89 80 99 98 71 68 57 49 49 31 24 19 19
22 17 17 16 16 13 15 17 17 16 21 26 41 61 56 46 36 36 29 23 17 16 13 12 13 14 28 44 28 36 53 31 80 97 97 96 89 93 84 95 97 72 60 60 63 37 27 21 18
19 17 13 18 21 17 15 12 15 14 16 21 30 49 57 51 42 41 32 29 28 23 18 28 16 14 44 45 50 53 64 47 42 95 90 96 96 92 92 91 97 99 99 83 70 38 33 24 19
17 15 15 16 29 19 18 12 30 26 15 15 24 35 49 51 47 38 34 38 36 32 18 48 26 52 95 83 80 49 39 31 39 58 95 97 96 98 96 81 71 84 93 86 50 44 38 31 23
17 18 23 29 39 41 35 19 40 49 27 15 16 23 34 49 50 46 33 46 38 32 20 14 56 97 82 81 53 55 45 56 38 33 52 96 95 96 97 96 92 78 80 71 64 51 38 28 25
26 38 42 46 45 56 68 51 61 62 39 17 14 18 25 33 44 45 38 39 38 28 15 10 63 100 53 62 69 65 58 58 47 50 73 95 96 96 86 95 97 98 90 85 66 62 51 42 34
35 56 70 82 74 82 72 38 32 51 42 33 19 15 17 23 25 34 38 37 34 24 15 11 99 96 68 52 100 82 62 79 65 63 80 92 96 94 93 85 97 96 95 95 94 91 73 70 75
34 46 66 67 83 100 89 56 59 58 59 50 35 28 14 15 19 23 24 28 27 41 42 26 71 96 72 77 90 74 60 72 88 100 84 77 95 93 98 96 91 96 96 95 96 86 86 64 45
49 59 62 74 72 86 98 43 40 49 76 62 60 34 19 14 13 17 49 27 23 24 35 25 67 73 74 84 87 70 84 87 96 97 99 88 95 94 99 94 94 98 96 96 97 94 94 77 76
39 42 54 92 99 92 100 49 42 47 43 74 90 65 48 25 95 53 65 59 34 29 32 28 38 62 47 80 62 56 68 96 81 92 97 97 98 91 99 96 96 94 97 96 98 98 97 95 93
50 66 90 100 96 98 100 82 64 67 86 99 98 100 98 100 100 100 95 75 62 39 43 36 40 72 80 77 53 70 91 96 96 91 95 98 96 93 94 94 97 96 97 96 98 98 98 98 94
70 78 81 76 90 96 100 94 82 97 96 98 100 100 96 100 97 87 47 43 40 32 24 49 63 78 78 79 81 92 91 96 96 96 97 97 97 97 96 96 97 97 97 97 96 96 96 96 95
84 100 100 98 100 84 85 94 73 100 96 92 41 77 71 74 54 37 32 26 17 17 23 41 67 67 83 74 80 92 97 96 96 96 97 97 96 98 97 97 97 93 96 97 97 97 97 97 95
91 98 97 94 99 96 95 96 96 64 84 80 58 62 80 51 40 48 43 33 30 42 59 40 57 62 68 66 60 95 97 93 93 95 97 99 96 97 96 97 96 96 96 97 96 96 97 96 96
99 100 98 97 100 100 100 98 98 99 98 89 87 80 73 92 97 93 100 89 90 90 86 83 67 88 98 80 87 96 95 95 97 97 96 96 96 97 97 98 97 97 96 95 96 96 97 97 98
98 97 92 99 98 99 100 98 100 99 99 100 99 100 100 100 99 100 100 99 98 97 99 93 99 98 99 98 88 98 99 97 98 98 97 97 98 98 96 94 97 97 96 98 96 97 97 96 98
66 79 86 95 96 100 99 98 99 96 98 100 99 99 99 99 99 98 98 98 98 98 99 98 98 98 98 95 95 96 97 97 97 97 97 96 97 93 94 96 97 97 98 98 98 98 96 97 96
Wind_Speed
39 39 40 40 41 45 40 35 33 30 30 33 35 35 33 31 30 29 25 21 21 24 24 20 35 39 40 35 34 30 25 25 24 24 22 20 19 16 15 14 13 13 13 13 11 9 8 7 6
43 42 42 44 45 46 42 34 32 34 38 39 39 38 37 34 31 29 25 24 24 24 25 22 27 38 41 40 37 35 30 27 27 26 25 23 22 20 17 16 14 15 15 14 13 11 10 8 7
45 43 44 46 48 47 43 35 34 39 41 42 41 41 41 37 34 31 29 27 28 28 27 25 25 32 37 42 43 40 34 32 29 29 28 27 25 23 19 18 17 17 17 16 14 13 11 9 9
38 43 45 48 47 46 43 38 40 43 44 45 45 44 44 41 38 36 34 31 31 31 29 28 25 30 34 42 43 45 41 36 34 32 31 30 29 26 22 21 20 19 18 18 17 15 13 11 10
29 36 43 45 45 43 44 42 42 44 45 45 48 47 48 44 41 39 39 36 35 34 32 30 30 26 27 36 41 47 46 41 37 35 33 32 31 30 25 24 23 22 20 19 19 17 15 13 12
30 31 33 38 40 42 43 45 43 46 45 46 49 49 51 42 43 42 41 38 36 36 36 31 32 32 29 34 39 46 49 46 41 38 36 34 33 33 30 25 25 24 23 21 21 20 17 15 14
34 34 32 32 32 38 39 45 45 47 47 47 51 53 51 44 38 38 41 42 38 39 37 32 31 31 29 32 36 44 49 50 46 41 39 37 36 36 33 27 28 27 25 23 23 22 20 18 16
35 34 33 35 35 31 39 43 48 51 49 50 53 54 55 52 46 41 39 36 36 37 34 36 35 31 29 31 34 44 50 50 50 46 42 40 38 37 35 30 29 29 27 25 24 24 23 20 19
39 38 38 38 39 40 37 42 49 49 49 52 55 56 55 54 50 48 50 42 42 35 38 35 35 34 33 30 34 39 49 54 52 49 45 43 43 40 34 33 32 31 29 28 27 26 25 23 21
40 39 41 42 43 44 43 43 43 51 50 53 57 59 58 57 53 53 51 50 48 39 40 36 32 31 32 33 32 35 44 55 56 52 46 45 46 43 38 37 35 33 32 31 30 28 27 26 24
43 45 44 43 44 48 48 48 48 46 52 50 56 59 61 59 57 53 52 54 51 44 39 36 33 30 35 32 32 37 46 55 58 54 50 48 48 46 42 40 38 35 35 33 32 31 30 28 27
44 48 49 49 51 50 53 53 48 48 47 54 54 58 62 62 60 56 55 51 46 45 41 39 37 38 42 38 38 33 40 56 59 55 54 52 50 48 47 43 41 39 38 37 35 34 32 31 30
45 48 51 51 52 55 56 55 54 50 51 56 59 58 61 63 62 59 57 55 50 46 47 44 42 42 39 35 43 37 35 45 56 59 64 59 53 49 51 48 45 43 43 40 39 36 34 34 32
45 50 53 57 62 60 59 54 63 55 57 57 62 63 62 64 64 62 60 58 54 46 46 48 44 44 40 39 44 43 35 47 52 63 48 54 56 50 45 42 51 47 47 45 41 39 37 37 35
46 49 55 63 63 59 64 53 65 62 62 60 64 66 66 64 65 65 62 58 55 52 47 48 53 49 45 41 46 46 40 41 54 58 46 53 61 60 61 58 53 52 52 50 44 41 40 39 37
46 52 57 55 53 59 66 51 53 59 67 63 67 67 68 67 66 67 64 63 61 54 48 46 45 51 44 43 42 43 43 40 55 54 59 48 63 64 66 56 45 48 50 50 46 45 44 41 40
47 51 49 46 47 52 55 51 36 45 59 65 68 70 70 68 67 66 67 66 59 53 51 48 45 50 40 44 43 47 45 42 50 68 65 54 53 60 64 62 69 57 61 51 46 48 45 44 43
28 16 18 15 24 26 32 33 31 36 46 58 67 71 69 70 66 65 65 65 60 57 54 52 51 46 47 46 47 46 47 43 42 55 65 43 38 27 69 63 66 64 59 56 54 50 46 47 46
8 16 19 20 25 31 31 34 27 32 43 51 63 68 70 67 66 68 64 62 61 58 55 53 56 52 52 48 48 45 44 45 36 38 52 35 35 37 39 40 69 67 62 59 55 52 51 50 49
7 11 20 16 30 32 29 30 33 36 39 40 47 60 67 66 64 68 65 63 61 59 55 53 57 53 51 52 53 45 41 38 37 32 64 64 51 27 25 36 45 67 60 59 60 56 53 54 55
14 16 23 27 35 32 32 30 27 24 20 21 30 35 56 64 63 65 63 61 57 50 51 49 58 55 53 47 49 38 39 27 20 29 37 61 56 34 26 27 32 58 60 63 61 60 59 58 59
18 22 30 33 28 22 25 28 24 11 8 9 14 17 27 38 47 56 49 55 52 53 52 46 45 54 44 45 49 42 29 20 26 30 31 44 58 54 37 35 38 36 54 64 64 64 63 61 63
21 30 31 31 28 24 19 23 29 13 15 17 16 15 21 26 24 31 38 41 41 45 49 41 47 47 48 42 46 43 36 29 33 34 42 36 38 55 55 41 37 39 36 39 44 48 51 62 67
20 21 22 21 17 20 19 21 18 24 24 24 23 20 18 21 17 23 32 36 33 36 37 40 44 44 44 40 42 45 43 32 30 34 42 39 39 41 47 42 41 48 46 42 38 32 33 32 32
15 17 20 17 16 17 19 15 16 14 17 21 24 25 21 18 16 15 16 21 20 28 37 38 37 40 38 38 45 44 41 32 35 30 31 43 44 45 48 48 42 50 52 48 49 43 38 38 42
9 15 11 13 20 12 14 11 8 11 16 18 18 20 22 20 17 14 16 18 20 18 24 30 33 34 36 39 45 40 36 39 26 24 25 42 45 42 46 44 46 45 45 49 45 47 52 61 42
8 11 11 13 9 15 9 10 14 16 16 16 14 13 12 11 12 13 12 14 15 15 15 23 24 23 26 35 45 33 29 30 26 26 25 27 49 44 34 45 46 48 47 48 52 48 43 43 46
13 14 17 14 14 20 12 10 8 8 15 21 15 15 15 17 15 15 8 8 10 14 12 15 17 18 14 24 36 33 19 20 23 21 22 27 37 41 44 42 44 47 44 49 52 49 46 46 47
14 14 16 15 14 17 21 19 16 25 18 10 6 6 6 7 5 4 3 15 14 13 17 13 19 22 15 24 24 14 23 29 20 21 23 20 20 20 25 33 36 38 33 33 37 40 45 48 49
15 13 13 13 14 15 16 18 19 18 15 11 15 14 10 13 14 15 18 9 11 15 18 20 16 15 14 13 4 6 8 15 22 23 25 25 22 24 25 25 27 30 32 32 31 28 31 34 32
Wind_Direction
259 258 258 257 255 258 257 257 257 254 251 248 248 248 252 254 254 262 269 269 267 265 268 264 240 236 237 236 236 233 235 240 244 245 245 249 254 254 258 256 258 258 257 257 252 253 266 269 269
258 258 258 258 256 258 259 256 253 247 242 244 248 251 253 250 253 257 259 262 263 260 261 267 245 236 239 237 240 236 233 235 239 245 246 245 250 252 255 256 257 258 257 255 252 252 258 263 269
260 257 256 256 259 260 262 256 250 246 245 245 245 249 252 254 254 254 255 255 257 260 259 262 256 242 244 238 238 239 236 235 237 240 244 244 245 248 250 255 254 257 258 256 252 251 256 259 268
269 264 259 260 257 258 261 256 249 249 246 245 245 247 250 252 252 253 255 255 253 255 256 254 263 254 250 243 237 237 236 237 235 236 240 242 244 246 244 252 253 254 258 258 253 251 253 258 264
274 269 267 263 260 258 255 254 251 247 245 247 249 247 249 249 252 253 254 256 258 255 253 254 253 256 257 247 244 239 238 235 238 235 234 239 242 243 241 246 250 251 254 256 254 250 249 253 260
276 279 275 268 265 259 256 254 249 248 246 247 247 247 249 247 251 253 255 254 252 255 258 253 255 259 257 254 247 241 237 237 235 237 236 234 239 242 241 242 248 250 249 253 254 251 248 249 252
281 281 277 275 273 263 258 255 252 247 246 245 247 249 249 246 246 246 251 250 248 251 254 258 252 253 260 259 253 245 238 232 233 235 238 236 236 239 241 240 245 249 247 247 251 251 250 248 250
282 285 285 279 277 275 262 254 252 248 246 244 244 244 245 243 241 242 238 247 249 246 249 247 254 255 248 250 253 248 241 236 231 232 237 240 237 238 239 241 246 246 247 248 249 250 251 249 250
280 283 285 284 281 278 278 268 255 253 248 247 247 244 244 245 243 243 241 239 242 240 246 246 249 251 253 253 250 251 244 238 234 231 232 237 240 238 239 241 242 246 245 245 247 247 249 248 250
278 280 280 282 282 279 278 277 269 254 249 250 247 248 246 244 240 245 247 238 241 242 245 248 242 246 247 246 247 249 250 241 236 233 231 234 238 238 237 239 240 243 245 244 245 246 247 248 248
279 281 283 284 283 280 276 277 273 261 251 248 251 248 246 245 244 241 246 241 239 239 239 242 254 242 236 235 241 248 243 238 235 234 234 235 236 237 237 239 241 240 241 243 243 244 246 247 247
278 280 282 285 287 283 280 275 267 261 251 247 246 249 249 245 245 243 241 244 243 238 237 241 243 244 250 259 255 256 253 236 235 233 236 236 237 238 238 239 241 241 241 241 240 243 246 247 249
277 280 284 286 284 283 276 272 264 258 251 244 241 241 244 245 244 240 240 239 243 246 240 237 239 243 240 249 255 257 261 239 229 230 236 234 237 239 240 238 239 241 241 239 241 242 244 246 248
278 283 287 287 288 282 271 263 264 260 253 245 241 237 234 238 241 238 235 236 236 237 240 240 243 240 238 238 246 247 252 234 232 226 241 230 232 229 234 230 237 238 241 241 238 240 242 244 246
284 287 293 292 288 282 273 265 264 258 250 245 242 239 237 230 233 237 235 233 231 229 233 237 240 237 239 244 248 248 249 235 237 229 231 239 235 232 236 227 236 239 239 239 238 242 242 243 245
292 294 293 290 287 284 277 266 263 253 248 241 239 236 237 235 231 234 235 232 232 229 226 223 234 236 235 238 246 251 257 243 234 232 228 238 233 233 236 233 230 224 229 233 239 243 244 245 247
301 299 296 290 291 286 283 271 278 268 249 242 237 237 235 233 234 231 234 237 236 234 229 216 226 227 226 238 243 249 256 257 238 234 239 245 238 239 236 231 237 243 235 249 244 244 245 246 247
308 316 318 333 333 341 316 293 280 256 254 245 239 234 234 233 232 233 231 235 235 234 229 223 221 219 222 234 243 246 254 257 260 239 243 238 229 231 236 228 234 238 242 245 247 247 247 247 249
300 318 327 313 320 327 328 319 294 270 252 243 238 236 232 231 231 233 231 231 231 233 229 223 220 219 227 232 243 247 251 257 269 252 233 221 229 231 232 243 236 236 239 241 244 246 247 248 250
292 309 307 317 312 329 328 326 289 267 258 249 239 236 233 230 228 231 231 232 230 229 229 222 216 217 228 236 239 248 249 252 271 274 240 235 244 232 258 245 247 232 232 239 244 246 247 249 251
281 298 300 311 315 320 323 335 321 299 272 254 245 237 233 230 226 227 230 230 232 228 233 220 224 229 235 239 233 244 255 252 256 228 257 248 243 244 258 250 248 239 238 241 243 245 247 248 249
280 303 313 319 320 322 332 357 343 329 241 237 241 234 222 219 223 222 224 229 228 229 231 223 220 224 229 235 240 239 232 233 249 233 214 248 234 254 252 256 244 246 247 240 242 245 245 248 249
297 306 303 311 320 334 341 9 26 44 82 110 107 150 158 176 186 207 214 224 224 225 227 225 222 226 228 233 234 224 233 222 233 240 219 229 249 257 256 248 235 241 244 244 241 254 244 251 253
306 307 316 320 335 349 349 18 24 68 76 84 88 99 127 146 161 203 210 215 221 222 222 219 221 224 228 226 220 217 217 235 240 229 215 216 228 249 254 243 232 236 239 241 236 232 238 244 246
315 320 334 19 2 355 360 5 13 23 66 80 92 108 122 133 156 173 188 205 216 217 215 216 220 223 224 224 207 211 220 234 234 237 233 222 221 219 230 239 239 235 239 235 237 238 227 255 254
339 351 354 1 4 358 18 31 30 37 93 99 98 112 124 135 148 165 180 191 200 208 216 221 228 229 222 226 217 219 234 237 232 229 247 229 231 226 225 233 236 237 235 231 235 242 246 253 252
345 7 17 55 37 19 19 52 89 100 113 112 118 124 130 150 150 140 158 174 174 183 195 223 227 236 237 240 233 231 255 250 240 246 253 244 229 230 224 219 226 233 232 236 248 251 253 257 245
30 42 57 59 66 49 31 18 18 78 80 97 122 136 152 155 136 138 183 166 193 180 186 199 204 212 230 240 237 262 239 241 250 247 247 232 233 232 234 237 239 237 246 260 260 264 259 259 261
48 56 59 60 55 55 56 57 57 78 74 62 60 47 29 6 64 32 162 198 182 180 181 214 217 233 210 224 244 231 228 228 214 227 212 212 206 211 227 238 237 242 238 244 252 257 257 256 253
60 51 62 66 54 50 47 54 63 70 70 69 77 58 70 54 61 78 116 115 176 183 200 208 198 185 194 206 182 211 203 211 212 214 216 230 239 239 228 230 227 229 233 238 239 240 238 243 242